Location: Hawks Ness
(60.2333°N, 1.1667°W)
Time: 20:09:22
(UTC+00:00)

SL-14 R/B - Visible Passes

Search period start: 20 January 2020 00:00
Search period end: 30 January 2020 00:00
Orbit: 519 x 554 km, 82.4° (Epoch: 20 January)

Date Brightness Start Highest point End Pass type
(mag) Time Alt. Az. Time Alt. Az. Time Alt. Az.
20 Jan 4.8 16:47:17 10° SE 16:50:01 18° E 16:52:44 10° NE visible
20 Jan 3.3 18:21:43 10° SSW 18:25:43 79° WNW 18:28:57 15° NNE visible
20 Jan 6.1 20:00:00 10° W 20:02:35 16° NW 20:04:26 13° NNW visible
21 Jan 4.8 16:38:50 10° SE 16:41:32 18° E 16:44:13 10° NE visible
21 Jan 3.3 18:13:13 10° SSW 18:17:14 79° WNW 18:21:02 11° NNE visible
21 Jan 6.1 19:51:29 10° W 19:54:05 16° NW 19:56:30 11° NNW visible
22 Jan 3.3 18:04:44 10° SSW 18:08:44 80° WNW 18:12:43 10° NNE visible
22 Jan 6.1 19:42:59 10° W 19:45:35 17° NW 19:48:11 10° NNW visible
23 Jan 3.3 17:56:16 10° SSW 18:00:15 81° WNW 18:04:14 10° NNE visible
23 Jan 6.1 19:34:28 10° W 19:37:05 17° NW 19:39:42 10° NNW visible
24 Jan 3.3 17:47:46 10° SSW 17:51:46 82° WNW 17:55:44 10° NNE visible
24 Jan 6.1 19:25:58 10° W 19:28:36 17° NW 19:31:13 10° NNW visible
25 Jan 3.3 17:39:18 10° SSW 17:43:17 83° WNW 17:47:14 10° NNE visible
25 Jan 6.0 19:17:28 10° W 19:20:06 17° NW 19:22:44 10° NNW visible
26 Jan 3.3 17:30:49 10° SSW 17:34:47 84° WNW 17:38:45 10° NNE visible
26 Jan 6.0 19:08:58 10° W 19:11:36 17° NW 19:14:15 10° NNW visible
27 Jan 3.3 17:22:20 10° SSW 17:26:18 85° WNW 17:30:15 10° NNE visible
27 Jan 6.0 19:00:27 10° W 19:03:06 17° NW 19:05:46 10° N visible
28 Jan 3.3 17:13:51 10° SSW 17:17:49 86° WNW 17:21:46 10° NNE visible
28 Jan 6.0 18:51:57 10° W 18:54:37 17° NW 18:57:17 10° N visible
29 Jan 3.3 17:05:23 10° SSW 17:09:20 87° WNW 17:13:16 10° NNE visible
29 Jan 6.0 18:43:26 10° W 18:46:08 17° NW 18:48:47 10° N visible
